Wetbulb
61.01 58.51 56.05 47.92 37.42 33.10 30.13 35.54 35.38 37.88 39.02 41.11 44.92 44.45 43.25 43.36 48.38 41.30 63.35 69.15 71.22 72.40 73.56 73.85 74.71 74.89 75.26 74.89 74.35 73.51 73.01 72.84 72.95 73.20 72.84 72.60 72.31 72.14 71.92 72.10 72.01 71.97 71.95 72.42 71.79 71.89 71.30 71.42 71.44
58.54 56.18 48.61 42.03 32.35 28.29 31.50 34.81 36.28 38.06 43.12 43.37 44.39 42.79 43.07 42.25 57.05 62.17 65.56 70.65 71.78 72.58 73.16 73.06 74.51 74.62 74.56 74.47 74.32 73.63 73.44 73.28 73.28 73.34 73.63 72.84 72.31 71.97 71.91 71.98 72.20 71.89 72.25 72.03 71.85 71.95 71.21 70.57 70.60
57.10 54.58 44.47 37.20 29.71 29.30 32.27 35.56 36.36 42.98 43.52 44.71 44.06 44.90 45.76 50.68 60.83 62.51 65.49 70.92 71.65 72.05 72.62 72.60 74.12 74.34 74.42 74.26 74.24 73.74 73.87 73.76 73.75 73.75 73.73 73.65 72.96 72.25 72.45 72.74 72.21 71.72 71.92 71.83 71.70 71.27 70.94 70.41 69.82
50.76 45.75 41.49 35.06 32.73 36.88 37.36 39.92 41.98 40.52 41.57 42.88 45.00 42.71 49.30 59.08 61.41 64.45 67.33 70.88 70.63 71.34 72.08 72.90 73.83 74.24 74.34 74.14 74.10 73.92 74.07 73.91 73.90 73.63 73.56 73.36 73.37 72.35 72.42 72.63 72.46 72.15 71.89 71.84 71.21 70.83 70.41 70.50 69.81
46.63 42.25 34.51 31.50 32.65 35.78 38.65 41.38 40.36 40.81 41.18 42.14 43.41 41.91 44.40 60.25 63.40 65.47 68.85 70.45 69.75 70.31 71.59 72.68 73.75 73.89 74.13 73.80 73.64 73.91 73.75 73.68 73.37 72.90 73.18 72.70 73.30 72.95 72.69 72.17 72.26 71.79 71.00 70.18 69.46 69.21 68.97 68.71 68.75
42.29 39.66 31.86 29.73 32.72 37.46 40.28 41.22 38.81 39.89 40.31 40.82 41.80 42.25 43.37 56.91 62.43 63.78 65.80 68.74 70.12 69.79 71.12 72.03 71.90 72.78 73.08 73.39 73.48 73.35 73.29 73.51 73.26 72.70 73.06 72.82 72.88 72.19 72.31 71.65 71.82 71.61 70.33 69.31 68.92 68.56 68.10 68.53 68.50
40.26 37.39 32.17 30.82 34.36 36.87 39.91 41.89 37.50 37.80 37.35 39.97 41.62 41.22 44.00 55.71 59.95 62.86 62.38 65.35 68.55 70.31 70.72 71.02 71.15 71.05 71.15 71.59 72.28 72.63 72.81 72.77 72.60 72.44 72.21 72.14 71.48 71.56 71.74 71.16 70.97 71.16 70.74 69.88 69.41 68.32 68.60 69.26 68.07
43.61 39.32 33.66 33.32 33.60 35.70 40.57 42.49 42.07 40.37 39.30 44.40 43.58 39.53 39.09 48.94 60.04 59.89 59.87 61.89 67.63 68.60 69.74 69.28 69.38 70.25 70.22 70.62 70.36 71.01 71.42 71.39 71.63 71.28 70.65 69.61 69.17 69.62 70.42 69.70 69.95 70.67 70.76 69.82 69.50 69.23 69.72 69.56 68.92
45.20 35.28 31.87 34.08 35.44 36.77 40.94 40.98 42.98 44.52 42.38 43.87 44.80 42.65 46.79 56.50 58.44 57.63 57.71 57.54 62.24 66.64 67.79 68.73 69.05 69.70 69.46 69.60 69.81 69.95 70.05 69.89 69.74 69.50 68.20 67.51 67.74 68.18 67.75 66.86 67.99 69.21 69.91 69.63 70.08 70.13 69.63 68.70 67.80
41.06 32.95 33.73 39.13 37.87 37.84 42.40 41.03 41.87 42.36 41.03 42.19 43.66 46.10 50.43 55.66 55.78 55.82 55.07 56.63 55.46 61.22 64.54 67.86 68.59 69.22 69.01 69.76 68.40 68.17 69.20 69.61 69.45 68.85 67.28 67.49 66.85 66.89 66.98 65.04 66.68 68.66 69.03 68.92 69.96 69.75 68.23 64.94 63.77
41.56 36.42 39.82 41.76 43.54 44.76 42.13 40.95 43.53 40.56 38.93 41.51 42.82 44.21 47.35 49.33 53.04 53.09 53.22 53.66 55.55 56.25 61.57 65.36 67.74 68.24 68.37 68.31 67.68 67.80 67.70 67.20 68.22 67.20 66.76 66.81 66.78 66.16 64.95 64.48 65.80 65.12 64.54 65.85 67.09 67.27 63.68 60.89 60.95
38.34 42.83 43.30 43.98 45.45 43.95 42.39 42.88 41.09 42.14 42.43 45.09 45.01 46.26 45.99 46.64 47.62 51.78 52.46 52.76 52.67 53.29 56.04 60.02 63.38 66.68 67.15 67.80 67.36 67.28 67.33 67.20 66.99 66.83 66.39 66.60 65.96 65.12 63.75 63.66 62.72 62.13 61.70 61.60 61.92 62.21 60.86 59.55 60.28
38.40 40.02 42.57 43.26 42.80 41.96 42.73 40.45 40.79 40.11 44.67 45.44 45.71 46.13 44.89 45.23 45.94 47.72 52.05 53.83 53.62 52.74 53.88 54.74 57.41 59.59 65.57 65.84 66.87 66.93 66.78 66.84 67.29 66.72 66.34 66.73 66.35 64.62 63.15 62.83 62.24 61.27 60.04 60.38 60.47 60.73 60.04 58.06 59.19
39.59 40.44 40.66 41.97 42.10 41.94 40.75 40.90 39.97 41.62 43.80 43.74 44.59 44.30 44.77 44.97 45.15 45.94 47.39 49.19 51.89 54.35 54.20 54.67 54.69 55.71 57.40 61.92 64.24 66.35 66.19 66.70 66.53 66.66 66.39 66.18 65.97 64.26 62.64 61.93 61.35 59.96 59.99 59.71 60.92 61.07 58.79 57.13 57.59
41.50 36.60 38.04 39.53 39.87 39.82 41.10 36.26 37.38 42.81 42.38 42.62 43.54 44.53 45.10 44.74 45.42 46.68 49.27 48.80 50.86 48.99 51.07 53.55 54.67 54.82 54.60 55.74 57.99 64.19 64.62 65.70 65.86 65.68 66.29 66.01 65.54 63.26 62.26 61.53 60.78 59.81 59.55 59.19 59.93 60.02 59.16 56.66 57.16
36.81 34.60 29.29 37.19 39.80 40.90 39.34 30.73 39.11 41.30 40.06 40.20 42.18 42.51 43.36 45.92 47.53 46.57 47.78 48.63 49.10 50.24 52.19 53.15 54.82 54.49 53.62 53.58 54.20 54.64 59.12 64.34 64.42 64.69 65.30 65.67 64.95 63.38 61.78 61.04 60.57 60.18 59.38 59.55 59.77 59.73 58.83 56.31 56.32
32.25 27.87 29.09 33.57 37.84 33.75 36.36 31.74 37.97 39.48 38.60 38.38 40.04 41.08 41.79 44.07 42.42 42.23 42.77 43.77 44.97 45.12 46.40 48.93 52.48 52.75 52.71 53.56 52.97 52.99 53.52 55.36 63.48 63.66 63.85 64.69 64.63 63.22 61.28 60.75 60.40 60.35 59.82 59.91 59.90 59.47 59.22 56.31 56.83
24.66 26.48 28.45 28.72 30.51 29.29 29.90 29.26 33.79 36.87 36.99 36.30 36.70 36.39 36.93 36.39 35.87 37.68 38.49 39.87 41.22 41.44 42.86 44.77 47.48 50.21 52.73 52.64 52.79 52.60 52.36 52.61 58.84 63.70 63.27 63.58 64.05 62.88 61.77 60.69 60.17 60.45 59.28 59.82 60.48 59.82 58.54 57.43 56.73
25.40 22.06 19.89 23.23 28.46 24.97 25.37 27.53 31.13 33.58 33.04 31.03 29.60 29.43 30.61 32.46 35.32 36.78 36.35 36.89 37.96 38.90 39.99 41.36 42.57 45.12 49.37 52.01 50.90 51.04 51.52 52.69 56.18 60.74 62.61 63.00 63.80 62.94 62.34 61.44 60.55 60.71 59.63 59.67 59.73 59.81 57.65 56.11 55.90
21.96 17.98 16.83 23.07 25.84 25.06 24.94 25.09 28.61 28.62 28.11 28.55 28.33 29.18 30.04 31.86 32.92 34.52 35.22 35.44 36.12 36.04 37.15 39.23 40.84 42.69 44.60 49.46 52.06 52.07 52.31 53.82 55.05 60.00 61.98 62.75 62.88 62.87 62.43 61.85 60.52 60.59 60.14 60.19 59.45 59.00 57.41 55.95 55.89
19.85 17.08 17.29 17.21 22.37 24.70 22.89 20.02 21.22 26.09 28.17 30.15 30.55 30.96 31.71 31.24 31.53 33.07 33.74 34.02 34.82 34.98 35.78 37.11 37.67 39.89 42.05 44.36 49.40 53.58 54.11 54.56 55.05 56.85 60.23 61.81 62.41 62.26 62.38 61.61 61.19 60.54 60.59 59.74 58.81 58.59 57.62 54.85 55.48
16.65 22.06 20.91 19.83 16.87 12.02 20.72 9.12 15.92 19.37 20.61 22.22 24.76 29.30 30.83 32.18 33.05 33.93 33.73 32.62 32.45 32.68 34.68 35.94 36.74 37.55 38.13 39.74 44.12 48.39 52.95 53.28 54.84 57.18 58.98 59.51 61.54 61.22 61.31 61.70 61.24 60.36 59.87 59.64 58.93 58.63 58.39 57.21 54.40
18.12 22.76 20.46 19.65 16.07 13.47 17.15 12.34 13.68 18.15 15.77 18.60 21.80 23.99 27.40 30.18 31.69 31.25 31.85 32.35 32.88 32.64 31.97 33.88 34.55 35.98 36.12 36.68 40.53 43.25 47.29 54.91 54.12 55.32 57.26 58.40 60.08 60.76 61.35 61.00 60.65 60.21 60.14 59.49 58.95 58.21 58.39 57.88 56.53
24.27 20.17 19.44 18.04 14.83 2.12 13.39 13.12 8.69 12.84 15.78 18.08 20.95 23.14 24.77 27.25 30.58 30.83 31.33 31.29 31.01 31.80 32.28 32.48 32.47 33.45 34.89 35.09 36.50 39.68 42.87 45.49 54.15 56.89 56.69 56.60 58.05 58.19 59.72 59.96 59.70 58.76 59.24 59.04 58.97 58.71 58.52 58.08 57.73
20.89 15.21 5.60 0.82 -1.84 4.37 16.76 10.86 9.78 16.38 18.83 20.01 20.46 21.51 23.77 25.75 27.40 27.57 27.17 27.79 29.23 29.28 30.47 31.89 31.47 30.96 32.95 33.98 34.31 36.66 39.49 42.91 49.08 54.22 55.19 55.94 55.61 56.37 57.52 58.46 58.39 58.41 58.48 58.65 59.07 58.63 57.95 57.50 56.90
17.67 15.58 5.57 -2.76 -1.72 0.57 13.26 4.51 7.64 18.77 21.04 22.17 22.04 22.46 23.81 24.72 26.46 25.72 26.44 26.73 27.43 28.38 29.32 29.57 30.44 30.18 31.44 32.62 33.26 35.07 37.22 39.07 43.13 49.24 55.25 55.20 55.24 55.77 57.06 57.81 57.94 57.98 58.17 58.09 58.45 58.21 58.02 57.54 57.37
16.81 11.96 18.07 11.30 8.81 4.87 9.64 10.41 17.70 17.49 17.62 18.84 19.22 20.25 20.08 23.54 23.82 24.28 25.59 25.93 26.25 26.98 28.27 29.28 29.26 30.10 30.47 31.38 32.28 32.98 35.47 36.95 37.41 41.80 48.91 51.25 54.23 55.44 55.88 56.37 56.48 56.91 57.22 57.54 56.99 56.90 57.10 57.35 56.60
18.06 19.44 8.11 10.60 -3.68 -0.96 4.79 5.48 3.74 9.43 12.49 15.24 15.72 15.76 18.59 21.92 22.79 23.58 24.72 25.67 26.73 27.51 28.14 29.01 29.79 29.55 30.41 30.79 31.03 32.55 33.40 35.03 36.56 37.30 40.33 46.76 50.38 51.92 54.04 54.73 54.94 55.18 56.44 56.64 55.38 54.85 55.37 56.15 55.55
13.10 10.64 12.71 12.58 11.99 2.52 1.13 -6.73 8.59 8.16 11.22 12.77 14.06 16.22 18.36 19.70 20.51 22.06 23.56 25.24 26.17 27.05 27.52 28.15 28.45 28.92 29.66 30.39 30.52 31.37 31.97 33.73 35.42 34.45 35.96 39.07 46.63 48.80 49.01 50.38 52.22 54.13 54.56 55.51 55.71 55.91 55.01 54.70 54.74
13.98 9.22 10.12 6.00 5.21 8.93 6.10 1.56 11.93 6.45 10.27 14.89 14.99 16.62 19.14 19.74 20.04 21.33 22.48 23.92 24.54 24.97 26.02 26.67 27.62 27.92 29.52 30.37 30.49 30.81 31.53 32.64 33.12 35.22 35.35 37.22 39.83 46.42 46.57 47.66 49.04 49.65 52.87 53.02 53.24 54.50 54.33 54.04 53.99
MSLP
1012.93 1013.07 1013.29 1013.93 1015.63 1016.17 1015.08 1013.19 1011.43 1010.31 1009.66 1008.84 1008.56 1008.48 1008.48 1008.52 1008.56 1009.09 1008.65 1008.66 1009.19 1009.55 1009.82 1010.21 1010.62 1010.84 1011.03 1011.37 1011.61 1011.87 1012.15 1012.47 1012.83 1013.11 1013.34 1013.61 1013.74 1014.04 1014.35 1014.60 1014.85 1015.02 1015.12 1015.39 1015.62 1015.86 1016.25 1016.52 1016.75
1013.26 1013.26 1013.92 1015.11 1016.26 1016.27 1014.37 1012.27 1010.91 1009.95 1009.32 1008.82 1008.55 1008.44 1008.42 1008.44 1008.42 1008.65 1008.65 1008.95 1008.85 1009.33 1009.85 1010.28 1010.58 1010.91 1011.16 1011.45 1011.79 1012.03 1012.25 1012.44 1012.79 1013.07 1013.32 1013.63 1013.89 1014.18 1014.51 1014.60 1014.89 1015.10 1015.20 1015.46 1015.77 1016.02 1016.39 1016.72 1016.95
1013.20 1013.58 1014.94 1015.78 1016.25 1015.65 1013.81 1011.74 1010.62 1009.56 1008.99 1008.69 1008.54 1008.33 1008.35 1008.57 1008.54 1008.63 1008.23 1008.84 1009.08 1009.44 1009.68 1010.18 1010.53 1010.84 1011.20 1011.58 1011.94 1012.21 1012.40 1012.62 1012.83 1013.01 1013.20 1013.60 1013.95 1014.24 1014.50 1014.68 1014.98 1015.18 1015.30 1015.57 1015.97 1016.27 1016.64 1016.89 1017.07
1013.61 1014.43 1015.67 1015.88 1015.71 1014.15 1012.83 1011.36 1010.31 1009.55 1009.08 1008.68 1008.56 1008.57 1008.37 1008.38 1008.23 1008.21 1008.53 1008.99 1009.31 1009.69 1009.74 1009.97 1010.30 1010.71 1011.03 1011.45 1011.86 1012.24 1012.51 1012.74 1012.92 1013.09 1013.29 1013.58 1013.93 1014.24 1014.52 1014.86 1015.15 1015.36 1015.61 1015.88 1016.19 1016.51 1016.84 1017.10 1017.29
1014.13 1015.25 1016.14 1016.22 1015.31 1013.63 1012.23 1010.94 1010.09 1009.64 1009.08 1008.78 1008.61 1008.66 1008.57 1008.37 1008.24 1008.21 1008.57 1009.06 1009.43 1009.84 1009.87 1010.07 1010.30 1010.60 1010.92 1011.37 1011.70 1012.09 1012.48 1012.75 1013.00 1013.26 1013.48 1013.65 1013.91 1014.22 1014.60 1015.03 1015.35 1015.56 1015.83 1016.13 1016.41 1016.68 1017.01 1017.25 1017.46
1014.93 1015.70 1016.53 1016.33 1014.93 1013.23 1011.92 1010.57 1010.05 1009.67 1009.14 1009.01 1009.07 1008.92 1008.68 1008.50 1008.52 1008.52 1008.78 1009.07 1009.39 1009.66 1009.87 1009.95 1010.24 1010.50 1010.96 1011.21 1011.56 1011.97 1012.38 1012.65 1013.00 1013.22 1013.47 1013.69 1013.92 1014.28 1014.61 1014.96 1015.39 1015.68 1015.97 1016.32 1016.54 1016.78 1017.11 1017.34 1017.55
1015.19 1016.04 1016.16 1015.64 1014.59 1013.25 1011.66 1010.49 1010.26 1009.88 1009.61 1009.41 1009.16 1009.21 1009.15 1009.01 1008.72 1008.67 1008.95 1009.09 1009.28 1009.43 1009.73 1009.88 1010.19 1010.50 1010.72 1011.21 1011.56 1011.86 1012.22 1012.52 1012.85 1013.18 1013.49 1013.68 1014.01 1014.27 1014.59 1014.89 1015.27 1015.60 1015.94 1016.36 1016.63 1016.84 1017.12 1017.40 1017.70
1015.03 1016.00 1016.08 1015.26 1014.30 1012.93 1011.67 1010.96 1010.49 1010.30 1009.83 1009.51 1009.36 1009.53 1009.49 1009.09 1009.12 1009.03 1009.02 1009.04 1009.22 1009.55 1009.56 1010.08 1010.27 1010.49 1010.80 1011.17 1011.51 1011.84 1012.20 1012.55 1012.78 1013.06 1013.45 1013.77 1014.07 1014.34 1014.63 1014.94 1015.23 1015.51 1015.93 1016.31 1016.65 1016.90 1017.11 1017.38 1017.84
1014.84 1015.93 1015.98 1014.76 1013.81 1012.48 1011.81 1011.56 1010.86 1010.72 1010.49 1010.03 1009.62 1009.49 1009.37 1009.29 1009.51 1009.33 1009.46 1009.74 1009.63 1009.62 1009.50 1009.80 1010.12 1010.26 1010.66 1011.11 1011.52 1011.86 1012.16 1012.51 1012.80 1013.09 1013.33 1013.69 1014.07 1014.39 1014.73 1014.92 1015.24 1015.52 1015.84 1016.30 1016.69 1016.94 1017.17 1017.42 1017.90
1015.24 1015.84 1015.05 1013.92 1013.03 1012.68 1012.24 1012.05 1011.74 1011.50 1011.09 1010.74 1010.36 1009.83 1009.70 1009.86 1009.75 1009.80 1009.89 1009.96 1010.01 1009.81 1009.70 1009.60 1009.88 1010.18 1010.54 1010.73 1011.21 1011.77 1012.09 1012.43 1012.77 1013.13 1013.41 1013.75 1014.06 1014.31 1014.66 1015.08 1015.37 1015.61 1015.80 1016.20 1016.63 1017.01 1017.31 1017.70 1017.97
1015.05 1014.94 1014.30 1013.53 1013.01 1012.67 1012.44 1012.13 1011.94 1011.71 1011.67 1011.44 1010.99 1010.41 1010.52 1010.44 1010.48 1010.34 1009.97 1009.88 1009.89 1009.77 1009.79 1009.75 1009.79 1009.92 1010.07 1010.60 1010.92 1011.27 1011.79 1012.26 1012.74 1013.06 1013.44 1013.76 1014.16 1014.32 1014.63 1015.13 1015.51 1015.80 1016.02 1016.33 1016.63 1017.05 1017.50 1017.91 1018.09
1015.05 1014.43 1014.36 1013.66 1013.09 1012.85 1012.67 1012.39 1011.87 1011.89 1011.68 1010.72 1010.72 1010.69 1010.83 1011.02 1011.11 1010.80 1010.48 1009.96 1009.73 1009.75 1009.72 1009.57 1009.70 1009.92 1010.05 1010.06 1010.52 1010.88 1011.23 1011.69 1012.28 1012.83 1013.27 1013.72 1014.18 1014.45 1014.60 1014.90 1015.41 1015.84 1016.15 1016.50 1016.78 1017.14 1017.54 1017.94 1018.10
1015.06 1014.76 1014.31 1013.85 1013.36 1013.04 1012.62 1012.45 1012.20 1011.90 1010.90 1010.75 1010.82 1010.80 1010.86 1010.83 1010.98 1010.73 1010.41 1009.93 1009.75 1009.65 1009.41 1009.28 1009.66 1009.77 1009.86 1010.19 1010.45 1010.69 1011.12 1011.35 1011.54 1012.08 1012.77 1013.28 1013.76 1014.37 1014.61 1014.80 1015.09 1015.57 1016.05 1016.41 1016.86 1017.16 1017.53 1017.97 1018.09
1014.99 1014.79 1014.56 1014.01 1013.32 1013.03 1012.48 1012.09 1012.35 1011.48 1010.56 1010.85 1010.87 1010.71 1010.60 1010.68 1010.67 1010.58 1010.41 1010.12 1009.85 1009.51 1009.34 1009.07 1009.11 1009.34 1009.71 1010.03 1010.15 1010.38 1010.62 1010.88 1011.25 1011.73 1011.98 1012.55 1013.12 1013.71 1014.26 1014.75 1014.93 1015.33 1015.74 1016.22 1016.60 1016.99 1017.47 1017.91 1018.19
1015.17 1014.95 1014.50 1013.63 1013.04 1012.95 1012.34 1012.53 1012.29 1011.03 1010.97 1010.89 1010.76 1010.72 1010.34 1010.39 1010.71 1011.61 1011.63 1011.36 1010.95 1010.24 1009.80 1009.66 1009.04 1008.83 1009.25 1009.59 1009.85 1009.91 1010.11 1010.52 1010.97 1011.19 1011.50 1011.81 1012.42 1013.08 1013.63 1014.24 1014.76 1014.97 1015.41 1016.03 1016.48 1016.94 1017.38 1017.89 1018.07
1015.73 1015.57 1015.30 1014.08 1013.61 1013.08 1013.24 1013.06 1012.57 1012.39 1012.22 1012.03 1011.70 1011.29 1010.90 1011.50 1012.20 1012.49 1012.41 1012.18 1011.96 1011.52 1011.02 1010.31 1009.75 1009.59 1009.55 1009.12 1009.37 1009.53 1009.64 1009.90 1010.46 1010.72 1011.07 1011.37 1011.83 1012.29 1013.09 1013.73 1014.25 1014.57 1015.07 1015.65 1016.27 1016.73 1017.31 1017.72 1017.95
1016.85 1016.66 1016.48 1015.90 1015.33 1015.64 1015.02 1014.26 1014.31 1013.79 1013.44 1013.40 1012.79 1012.53 1012.56 1013.51 1013.93 1014.09 1013.93 1013.55 1013.01 1012.56 1012.05 1011.49 1010.73 1010.19 1009.91 1009.65 1009.64 1009.14 1009.20 1009.46 1009.82 1010.26 1010.64 1010.95 1011.37 1011.87 1012.50 1013.22 1013.66 1014.06 1014.62 1015.15 1015.77 1016.46 1016.83 1017.41 1017.79
1019.18 1018.55 1018.16 1017.84 1017.85 1017.42 1016.74 1016.45 1016.23 1015.56 1015.09 1014.99 1015.25 1015.54 1015.59 1016.01 1016.46 1016.40 1015.79 1015.15 1014.37 1013.75 1013.16 1012.54 1012.00 1011.19 1010.56 1009.95 1009.52 1009.54 1009.68 1009.40 1009.35 1009.80 1010.12 1010.33 1010.89 1011.41 1012.00 1012.70 1013.37 1013.84 1014.44 1014.94 1015.38 1016.02 1016.54 1016.87 1017.43
1020.80 1020.45 1020.22 1020.06 1019.90 1019.12 1018.63 1018.34 1017.96 1017.72 1017.25 1017.84 1018.24 1018.20 1018.13 1018.09 1018.02 1017.57 1017.17 1016.55 1015.44 1014.62 1013.97 1013.48 1012.81 1012.18 1011.33 1010.58 1010.16 1009.76 1009.40 1009.41 1009.53 1009.38 1009.46 1009.86 1010.05 1010.67 1011.22 1012.05 1012.76 1013.49 1013.93 1014.39 1014.69 1015.40 1016.01 1016.89 1017.19
1022.43 1022.24 1021.92 1020.73 1020.84 1020.62 1019.36 1019.27 1019.90 1020.47 1021.04 1021.04 1020.79 1020.45 1020.01 1019.38 1019.10 1018.62 1018.00 1017.55 1016.77 1016.10 1015.41 1014.67 1013.75 1012.98 1012.24 1011.45 1010.75 1010.15 1009.49 1008.85 1008.67 1008.94 1009.03 1009.13 1009.32 1009.83 1010.68 1011.29 1012.10 1012.70 1013.46 1014.01 1014.57 1014.96 1015.55 1016.33 1016.65
1023.61 1023.68 1023.24 1022.75 1021.66 1021.08 1020.58 1020.78 1021.75 1022.90 1022.85 1022.56 1022.46 1022.33 1021.69 1021.31 1020.38 1019.74 1019.07 1018.72 1017.89 1017.11 1016.33 1015.73 1014.80 1013.80 1012.84 1012.07 1010.99 1009.87 1009.27 1008.88 1008.59 1008.51 1008.57 1008.69 1008.80 1009.15 1009.69 1010.74 1011.40 1012.22 1012.55 1013.47 1013.74 1014.51 1014.75 1015.37 1016.22
1024.35 1024.52 1024.24 1023.52 1023.01 1022.09 1022.15 1023.07 1023.96 1024.81 1024.63 1024.58 1024.43 1023.61 1022.92 1022.50 1021.89 1020.96 1020.42 1019.86 1019.47 1018.78 1017.62 1016.64 1015.70 1014.73 1013.70 1012.92 1012.00 1010.89 1009.65 1008.74 1007.92 1007.77 1007.99 1008.27 1008.37 1008.85 1009.33 1009.74 1010.66 1011.46 1012.15 1012.70 1013.32 1014.04 1014.18 1014.83 1015.83
1025.20 1024.72 1024.23 1023.69 1023.38 1023.31 1022.84 1023.69 1026.30 1026.54 1026.31 1026.48 1026.17 1025.40 1024.45 1023.78 1023.21 1022.29 1021.88 1021.48 1020.99 1019.79 1018.58 1017.69 1016.67 1015.62 1014.57 1013.91 1013.22 1011.60 1010.22 1008.72 1007.68 1007.47 1007.49 1007.59 1008.09 1008.61 1009.08 1009.46 1010.12 1010.79 1011.54 1012.00 1012.51 1013.08 1014.02 1014.46 1015.38
1025.35 1024.74 1023.76 1023.63 1023.93 1024.36 1024.70 1025.64 1027.60 1027.93 1028.65 1028.02 1027.39 1026.47 1025.74 1024.84 1024.04 1023.37 1022.88 1022.21 1021.67 1020.45 1019.12 1018.34 1017.45 1016.75 1015.49 1014.90 1013.99 1012.23 1010.93 1009.53 1007.90 1007.21 1007.12 1007.27 1007.69 1008.26 1008.69 1009.29 1009.86 1010.46 1011.00 1011.52 1012.06 1012.43 1013.21 1013.91 1014.53
1025.91 1025.85 1025.47 1025.66 1025.65 1025.72 1025.17 1027.12 1029.55 1029.78 1029.65 1029.35 1028.53 1027.71 1026.70 1025.83 1025.08 1024.34 1023.51 1022.99 1022.27 1020.68 1019.79 1019.12 1018.45 1017.27 1016.40 1015.61 1014.71 1013.00 1011.51 1010.17 1008.57 1007.20 1006.77 1006.91 1007.30 1007.84 1008.25 1008.91 1009.52 1010.11 1010.59 1011.13 1011.67 1012.26 1012.96 1013.23 1013.77
1026.77 1027.11 1027.63 1027.69 1027.30 1026.93 1026.64 1028.45 1030.66 1030.51 1030.33 1029.94 1029.23 1028.08 1026.95 1026.23 1025.71 1025.11 1024.31 1023.46 1022.16 1020.95 1020.62 1020.13 1019.19 1018.00 1017.26 1016.68 1015.46 1013.84 1011.97 1011.26 1009.80 1008.31 1006.86 1006.60 1006.67 1007.20 1007.71 1008.41 1009.11 1009.72 1010.20 1010.74 1011.28 1011.71 1012.33 1012.94 1013.39
1027.58 1027.75 1027.98 1028.14 1027.85 1028.23 1028.65 1030.23 1030.13 1030.26 1030.11 1029.43 1028.74 1028.06 1027.34 1026.37 1025.55 1024.89 1024.03 1023.19 1022.31 1021.47 1020.86 1020.71 1019.71 1018.91 1018.25 1017.13 1016.23 1014.32 1012.87 1012.16 1011.04 1009.64 1008.17 1006.67 1006.48 1006.90 1007.64 1008.26 1008.93 1009.51 1009.97 1010.35 1010.90 1011.35 1011.85 1012.51 1013.15
1028.70 1028.77 1028.57 1028.63 1029.12 1029.06 1030.12 1031.08 1031.92 1031.27 1030.46 1029.93 1029.25 1028.56 1027.48 1026.60 1026.04 1025.37 1024.48 1023.38 1022.65 1021.85 1021.26 1020.75 1020.18 1019.59 1018.70 1018.14 1016.82 1014.95 1013.84 1012.92 1012.30 1010.80 1009.81 1008.31 1006.92 1007.14 1007.69 1008.19 1008.80 1009.25 1009.86 1010.29 1010.65 1011.15 1011.58 1012.10 1012.83
1029.81 1029.81 1029.76 1029.91 1030.09 1030.60 1031.08 1032.50 1032.78 1032.89 1031.97 1030.93 1029.96 1028.99 1028.00 1027.37 1026.91 1026.01 1025.18 1024.21 1023.32 1022.35 1021.51 1020.66 1020.12 1019.50 1018.89 1018.00 1016.48 1015.86 1015.29 1013.75 1012.76 1012.01 1010.78 1010.55 1008.98 1007.70 1008.02 1008.15 1008.49 1009.15 1009.72 1010.09 1010.62 1010.89 1011.23 1011.70 1012.34
1031.07 1031.26 1030.95 1030.72 1031.04 1031.37 1032.07 1033.01 1033.09 1032.97 1032.25 1031.45 1030.38 1029.37 1028.41 1027.84 1027.14 1026.31 1025.69 1024.66 1023.58 1022.74 1021.70 1021.02 1020.40 1019.64 1019.26 1018.57 1017.39 1016.15 1013.80 1016.58 1014.37 1012.45 1011.93 1010.58 1010.34 1008.15 1008.52 1008.78 1008.58 1009.14 1009.63 1010.18 1010.58 1010.71 1010.93 1011.40 1011.91
Wind_Speed
5 4 3 5 6 6 4 7 3 2 1 2 4 5 4 2 1 4 1 8 12 13 12 14 16 16 16 17 17 17 16 16 16 15 18 17 17 16 16 15 12 12 15 15 16 17 15 15 14
4 3 6 3 5 2 6 5 3 2 3 2 3 2 2 1 1 5 4 9 17 14 11 12 16 16 17 17 17 17 17 17 16 16 16 16 16 16 14 14 11 8 12 13 16 17 16 15 13
3 2 4 5 4 4 4 2 2 3 3 1 1 1 1 1 2 6 4 13 13 13 12 11 16 17 16 17 17 16 16 16 16 17 16 16 16 16 14 14 13 12 13 14 16 17 15 13 13
3 5 5 4 5 7 5 7 4 3 2 2 4 2 2 2 6 5 9 13 12 11 12 14 17 17 17 18 17 16 16 16 15 15 15 15 16 15 14 14 13 15 14 15 15 14 13 12 11
4 3 3 1 5 6 5 6 3 2 4 3 2 2 1 4 2 9 11 11 11 11 10 12 17 18 16 17 17 17 17 16 15 15 15 16 16 15 14 14 13 15 14 13 13 13 12 12 10
4 3 3 3 5 6 8 6 3 3 3 1 2 1 2 2 5 5 8 10 12 12 10 12 15 18 16 16 16 17 16 15 14 15 15 15 14 14 16 16 14 14 15 13 13 12 12 12 11
5 4 5 4 6 6 4 6 1 0 2 2 0 5 2 2 4 5 6 7 8 9 9 9 10 12 15 14 14 15 16 15 14 14 15 13 12 13 17 16 15 15 15 12 12 12 13 12 12
5 4 2 5 4 6 4 6 2 2 4 4 4 3 4 4 4 5 7 6 7 6 9 8 5 8 8 9 12 12 12 12 13 13 11 9 9 11 16 14 14 14 14 13 12 11 11 12 13
3 2 4 5 6 4 4 6 4 6 4 5 3 1 5 3 2 3 3 3 3 4 7 7 8 9 7 6 8 10 12 12 11 11 12 9 4 7 11 10 13 14 14 14 12 11 10 13 12
4 3 8 7 2 3 4 2 3 4 5 5 6 3 3 3 3 6 4 5 2 5 5 8 8 9 8 8 8 6 7 6 6 6 6 5 6 6 7 8 11 13 14 14 14 12 11 7 5
5 7 6 5 5 4 5 3 5 4 5 8 7 7 2 3 7 6 8 8 9 6 4 6 9 9 10 7 5 5 4 4 5 6 6 5 5 5 5 4 5 5 8 5 7 8 4 6 3
5 7 5 6 7 7 10 5 6 8 9 10 9 6 5 7 9 9 9 8 7 7 8 7 7 8 8 6 6 6 6 6 6 7 8 6 5 6 6 6 5 5 4 5 4 4 5 5 5
6 5 6 7 11 7 7 9 11 5 15 9 8 8 10 10 9 9 10 8 8 6 9 9 8 7 8 7 6 6 7 7 8 9 10 8 8 7 6 6 7 6 5 5 5 5 6 5 4
4 7 8 8 15 7 14 14 2 10 9 7 8 9 10 11 11 7 8 11 9 9 9 9 8 8 7 7 8 7 7 9 8 7 10 12 9 8 8 7 7 7 7 5 6 7 6 5 4
6 7 7 12 9 7 6 4 7 16 6 9 9 9 12 9 6 8 8 7 10 7 7 7 8 8 8 8 7 8 7 7 9 9 11 13 12 10 11 8 8 8 7 8 6 5 4 4 4
5 2 2 5 6 5 3 4 4 12 9 12 8 7 4 9 10 12 13 11 12 12 13 9 5 5 7 7 7 5 6 7 7 7 8 13 13 13 11 9 9 8 8 8 8 7 7 4 6
3 6 6 7 18 15 6 9 15 19 17 16 17 13 7 14 18 17 17 15 13 13 13 14 11 9 8 6 5 6 7 5 5 6 7 12 13 13 11 9 7 9 9 9 9 8 9 6 5
11 10 8 7 14 17 8 10 13 15 13 13 18 20 18 17 19 18 19 17 15 14 14 14 12 12 10 6 4 2 1 3 4 6 7 12 11 14 11 9 8 9 8 8 9 10 8 8 7
7 7 8 10 12 16 13 12 12 19 21 18 18 17 16 17 18 18 18 18 18 18 18 16 16 16 11 5 4 3 4 3 4 5 9 12 13 14 15 9 11 10 10 11 13 8 11 4 8
8 8 9 10 18 14 15 11 17 19 17 17 17 17 18 19 18 18 18 18 18 18 19 19 17 16 12 9 6 3 3 4 3 7 9 11 13 14 13 14 11 13 9 8 9 11 8 3 10
6 10 17 18 16 8 9 4 15 19 20 18 16 15 16 17 17 16 18 19 19 20 19 18 18 18 16 16 11 6 4 3 2 3 7 9 12 13 15 14 12 12 12 11 13 11 14 8 9
9 13 15 17 13 9 5 5 16 18 20 23 22 18 13 14 15 14 17 20 20 19 18 18 19 19 17 20 13 13 8 10 9 7 7 8 12 12 12 15 15 13 10 12 12 8 10 6 11
7 18 16 18 16 5 5 2 8 15 17 20 19 20 18 14 14 15 15 16 16 17 18 17 20 19 20 20 17 11 12 9 4 4 10 10 9 11 12 11 12 13 10 12 14 13 10 8 10
14 13 10 6 3 1 6 4 9 9 12 15 19 20 20 19 16 16 16 17 17 17 17 17 21 20 20 20 20 17 15 15 8 9 8 8 9 9 11 10 10 10 11 12 11 14 14 11 10
13 12 5 6 6 3 10 7 6 11 15 13 15 17 16 16 14 16 19 18 17 19 19 16 20 22 21 20 20 18 18 17 14 8 8 10 8 7 10 10 9 9 10 11 11 11 12 13 12
9 3 0 5 3 8 4 4 3 6 9 9 11 13 14 15 14 16 16 16 17 17 17 17 18 19 21 19 20 17 18 12 12 12 5 7 7 7 9 10 9 12 12 10 10 8 9 10 10
7 5 5 5 5 2 5 5 7 16 13 15 15 17 16 12 13 16 15 15 17 18 14 15 16 16 18 19 17 19 17 17 16 18 12 1 5 5 6 6 6 7 9 11 11 8 10 9 8
4 5 5 2 3 6 4 4 4 16 18 18 17 17 17 12 15 16 15 16 15 15 14 13 13 13 15 16 15 14 18 17 15 15 17 13 4 7 7 6 6 6 8 9 8 7 8 9 6
6 5 4 3 4 4 3 5 4 6 10 16 15 16 15 14 15 15 15 14 15 15 15 15 15 15 13 14 16 16 14 18 16 14 15 16 12 7 7 6 6 5 5 5 5 5 6 9 11
6 4 3 2 3 3 1 3 3 4 6 13 15 17 13 14 16 15 15 15 15 16 16 15 15 15 12 12 10 15 18 14 14 15 18 18 18 8 9 6 6 6 3 5 5 7 7 9 8
Wind_Direction
341 345 88 45 53 59 269 262 266 290 285 255 140 135 181 201 172 215 359 156 141 148 156 157 164 164 161 159 155 152 150 148 149 149 147 143 140 140 142 143 149 157 155 147 142 130 123 115 114
357 30 43 87 89 56 268 258 261 250 195 155 134 23 76 228 237 130 99 158 149 150 154 161 164 168 168 165 160 158 156 155 155 156 154 148 146 145 147 148 149 165 170 155 147 133 129 124 120
349 56 83 101 116 196 223 246 302 167 207 163 30 119 277 119 49 159 158 150 146 154 157 162 164 168 172 169 163 163 162 162 165 163 160 156 153 152 152 143 138 117 131 138 140 131 131 128 129
38 15 29 90 225 250 232 295 248 158 4 337 162 307 25 325 153 151 151 150 148 161 163 167 167 168 168 171 167 169 169 170 173 163 161 161 160 159 156 142 136 121 117 123 128 127 133 134 137
39 57 60 325 256 261 258 265 226 226 172 200 143 244 282 350 64 129 140 146 152 167 167 171 169 167 169 173 173 172 176 176 176 171 166 169 168 167 154 139 137 135 131 134 136 141 146 145 148
40 97 76 243 252 276 297 259 226 216 194 161 121 206 236 202 134 191 139 159 163 166 172 175 176 170 170 171 174 175 179 178 177 175 175 177 174 172 158 145 141 146 143 144 145 148 153 152 148
114 96 209 228 263 303 256 336 5 321 337 259 206 182 286 222 226 118 92 163 165 165 160 177 176 178 170 176 174 176 181 181 178 179 181 181 181 169 163 152 151 153 152 150 151 157 160 154 141
109 101 236 246 213 257 328 352 351 323 276 299 164 228 251 228 170 115 85 86 146 176 160 159 183 171 173 174 177 175 178 178 176 176 174 174 180 172 162 153 155 153 154 153 156 166 181 165 151
102 69 225 244 197 240 15 25 317 305 319 335 318 116 237 144 152 63 76 70 118 166 167 167 176 175 168 171 182 179 179 182 176 173 171 163 157 162 159 158 156 157 156 156 158 156 151 147 151
118 164 221 223 213 319 298 242 306 334 321 303 322 331 76 324 199 175 208 211 193 207 196 172 166 180 177 183 174 187 185 182 174 167 164 155 154 150 154 157 154 151 153 156 159 155 141 117 142
190 214 219 274 290 292 279 283 220 235 252 235 266 292 291 264 276 248 216 208 205 209 183 201 181 193 176 189 178 178 175 165 171 161 163 157 160 160 147 146 158 154 144 154 154 153 137 149 151
267 255 244 286 285 290 282 286 257 206 248 225 219 236 284 230 253 254 257 236 211 201 211 203 197 187 190 182 176 184 182 173 168 181 164 166 168 173 163 161 157 154 156 155 148 144 156 169 179
257 267 283 305 290 274 260 245 258 295 256 275 244 254 260 276 233 254 244 249 251 235 225 223 189 205 193 186 187 182 190 187 186 170 174 171 177 179 172 171 165 165 156 159 156 156 164 169 183
298 299 294 290 291 278 274 286 276 253 265 271 260 272 263 247 252 239 244 242 239 229 232 228 226 195 191 193 189 189 191 195 183 186 179 177 179 177 180 177 177 170 171 164 161 165 164 170 169
261 284 291 269 264 251 305 352 235 269 313 268 278 268 271 255 331 30 29 26 355 314 314 292 242 213 183 196 196 186 190 195 192 191 187 181 177 179 179 181 180 180 169 163 156 154 155 156 175
293 10 2 305 351 300 138 285 329 357 358 329 305 288 0 56 44 31 25 25 19 9 5 2 8 331 278 192 195 192 183 184 196 196 193 186 182 177 180 178 184 179 170 169 174 167 170 169 167
323 272 290 318 22 3 348 332 348 359 0 346 330 312 309 49 29 22 14 9 12 11 4 357 355 17 345 294 292 199 191 183 187 190 192 191 185 180 175 184 187 172 176 177 174 177 173 168 168
324 313 326 332 352 354 337 340 344 326 323 335 10 28 26 30 23 14 10 6 8 9 7 4 354 358 348 334 293 284 227 225 202 186 192 188 190 186 182 177 175 173 175 181 175 175 178 171 157
348 343 343 359 3 341 331 317 313 12 17 32 18 21 18 16 10 13 12 6 9 13 9 6 358 352 349 349 340 304 245 191 209 209 193 194 182 186 184 178 170 176 181 188 183 173 163 142 133
34 8 346 310 353 331 313 318 43 42 34 31 19 17 10 10 14 13 16 12 16 13 7 3 1 356 350 341 318 281 259 227 197 194 203 196 185 180 185 180 179 175 170 170 188 178 168 126 171
12 11 337 311 323 260 357 337 35 9 20 21 27 20 23 16 14 16 18 16 15 13 8 4 1 358 356 347 323 307 257 272 190 202 201 199 186 182 178 186 178 177 173 179 171 188 182 167 187
329 353 319 308 320 309 101 270 39 7 16 17 5 7 14 12 12 13 13 17 13 8 5 5 2 2 360 348 336 323 276 248 231 205 195 195 182 181 188 178 180 178 181 177 180 188 180 159 179
299 315 297 283 275 283 284 112 345 15 9 1 355 4 2 21 10 21 18 10 0 5 9 4 2 2 2 354 338 339 323 271 223 187 185 181 183 187 185 179 182 180 187 184 179 167 182 184 178
311 325 302 283 246 19 70 18 35 15 359 354 357 359 356 348 14 21 14 8 2 360 5 4 5 1 1 356 344 348 337 328 249 201 186 175 179 183 181 177 180 179 182 186 183 178 175 181 186
352 344 329 357 8 309 331 58 36 5 359 356 351 351 352 349 17 12 12 1 352 4 3 356 359 2 355 354 347 350 346 341 326 221 192 180 170 173 174 177 180 185 183 185 185 181 189 181 178
332 329 319 298 305 280 309 77 85 358 354 344 347 345 352 358 19 9 2 354 354 4 356 359 353 358 355 345 346 350 359 349 346 323 219 187 172 162 153 166 178 189 184 181 183 178 180 185 186
324 345 298 260 237 240 90 28 261 0 352 353 359 354 354 6 9 360 0 4 354 356 7 344 356 354 350 348 335 351 358 354 354 346 329 153 138 130 136 140 157 174 183 180 174 176 174 178 183
1 331 351 346 334 313 64 93 340 344 347 346 353 349 346 3 2 357 355 358 352 349 348 4 350 357 346 340 343 348 352 353 354 357 352 343 87 101 121 135 149 145 171 182 168 166 169 166 176
357 352 316 257 339 331 338 280 257 318 329 336 345 343 345 358 352 352 352 350 351 343 348 349 355 355 347 335 349 347 348 354 349 359 353 348 329 105 94 94 93 139 147 146 174 171 166 186 197
78 324 315 352 348 339 114 236 279 275 316 341 344 341 343 349 347 349 347 347 349 344 347 347 346 348 347 336 339 342 11 328 350 358 352 353 340 51 66 72 81 69 126 166 172 173 175 184 189